Le nostre stazioni meteo in Italia

Pubblicità
Il mio iltempo24.it
Gela, Italia (16453): Temperatura & dewpoint: 13.06.2019 01:00:00 - 19.06.2019 01:00:00 (CEST)Gela, Italia (16453): velocità del vento: 13.06.2019 01:00:00 - 19.06.2019 01:00:00 (CEST)Gela, Italia (16453): direzione del vento: 13.06.2019 01:00:00 - 19.06.2019 01:00:00 (CEST)Gela, Italia (16453): reduced air pressure: 13.06.2019 01:00:00 - 19.06.2019 01:00:00 (CEST)Gela, Italia (16453): visibility: 13.06.2019 01:00:00 - 19.06.2019 01:00:00 (CEST)Gela, Italia (16453): ore di luce: 13.06.2019 01:00:00 - 19.06.2019 01:00:00 (CEST)
Data & Tempo tt [°C] td [°C] ff [km/h] ff [kn] dd ppp [hPa] vv [km] sd [min]
19.06.2019 01:00:00 - - - - - - - -
19.06.2019 00:00:00 - - - - - - - -
18.06.2019 23:00:00 - - - - - - - -
18.06.2019 22:00:00 - - - - - - - -
18.06.2019 21:00:00 - - - - - - - -
18.06.2019 20:00:00 24,8 19,4 5 3 SSO 1012,9 10 42
18.06.2019 19:00:00 25,0 19,0 8 4 OSO - 10 -
18.06.2019 18:00:00 26,0 20,0 11 6 OSO - 10 -
18.06.2019 17:00:00 26,2 21,2 9 5 SO 1012,9 10 60
18.06.2019 16:00:00 26,0 21,0 11 6 OSO - 10 -
18.06.2019 15:00:00 26,0 21,0 9 5 OSO - 10 -
18.06.2019 14:00:00 26,2 20,8 11 6 SO 1013,4 10 60
18.06.2019 13:00:00 26,0 20,0 9 5 SO - 10 -
18.06.2019 12:00:00 26,0 18,0 9 5 OSO - 10 -
18.06.2019 11:00:00 26,2 16,7 9 5 OSO 1013,0 10 60
18.06.2019 10:00:00 26,0 16,0 5 3 SO - 10 -
18.06.2019 09:00:00 25,0 15,0 2 1 SSO - 10 -
18.06.2019 08:00:00 23,8 16,3 5 3 ENE 1012,6 10 30
18.06.2019 07:00:00 - - - - - - - -
18.06.2019 06:00:00 - - - - - - - -
18.06.2019 05:00:00 - - - - - - - -
18.06.2019 04:00:00 - - - - - - - -
18.06.2019 03:00:00 - - - - - - - -
18.06.2019 02:00:00 - - - - - - - -
18.06.2019 01:00:00 - - - - - - - -
18.06.2019 00:00:00 - - - - - - - -
17.06.2019 23:00:00 - - - - - - - -
17.06.2019 22:00:00 - - - - - - - -
17.06.2019 21:00:00 - - - - - - - -
17.06.2019 20:00:00 26,0 21,7 8 4 SSO 1011,8 4,0 24
17.06.2019 19:00:00 27,0 21,0 8 4 SO - 8 -
17.06.2019 18:00:00 27,0 22,0 9 5 OSO - 10 -
17.06.2019 17:00:00 27,0 21,5 9 5 SO 1011,8 10 60
17.06.2019 16:00:00 27,0 7,0 13 7 SSO - 10 -
17.06.2019 15:00:00 27,0 19,0 11 6 SO - 10 -
17.06.2019 14:00:00 27,8 18,5 13 7 OSO 1011,9 10 60
17.06.2019 13:00:00 28,0 19,0 11 6 SO - 10 -
17.06.2019 12:00:00 28,0 17,0 9 5 OSO - 10 -
17.06.2019 11:00:00 28,4 16,4 8 4 SO 1011,8 10 48
17.06.2019 10:00:00 28,0 18,0 4 2 SSO - 10 -
17.06.2019 09:00:00 28,0 15,0 0 0 N - 10 -
17.06.2019 08:00:00 25,8 15,2 4 2 ENE 1012,0 10 30
17.06.2019 07:00:00 - - - - - - - -
17.06.2019 06:00:00 - - - - - - - -
17.06.2019 05:00:00 - - - - - - - -
17.06.2019 04:00:00 - - - - - - - -
17.06.2019 03:00:00 - - - - - - - -
17.06.2019 02:00:00 - - - - - - - -
17.06.2019 01:00:00 - - - - - - - -
17.06.2019 00:00:00 - - - - - - - -
16.06.2019 23:00:00 - - - - - - - -
16.06.2019 22:00:00 - - - - - - - -
16.06.2019 21:00:00 - - - - - - - -
16.06.2019 20:00:00 29,2 15,0 4 2 SSO 1012,2 4,0 36
16.06.2019 19:00:00 27,0 15,0 4 2 SSO - 3,0 -
16.06.2019 18:00:00 27,0 16,0 8 4 SO - 3,0 -
16.06.2019 17:00:00 27,2 17,7 9 5 SSO 1012,7 2,0 60
16.06.2019 16:00:00 27,0 18,0 9 5 SSO - 4,0 -
16.06.2019 15:00:00 27,0 19,0 9 5 SSO - 4,0 -
16.06.2019 14:00:00 26,2 20,3 15 8 SSO 1012,4 5 60
16.06.2019 13:00:00 28,0 20,0 18 10 SSO - 6 -
16.06.2019 12:00:00 28,0 18,0 11 6 SSO - 6 -
16.06.2019 11:00:00 28,0 18,7 9 5 SO 1012,6 6 60
16.06.2019 10:00:00 28,0 16,0 8 4 SSO - 4,0 -
16.06.2019 09:00:00 28,0 17,0 4 2 SSO - 4,0 -
16.06.2019 08:00:00 27,2 13,9 0 0 N 1012,5 4,0 12
16.06.2019 07:00:00 - - - - - - - -
16.06.2019 06:00:00 - - - - - - - -
16.06.2019 05:00:00 - - - - - - - -
16.06.2019 04:00:00 - - - - - - - -
16.06.2019 03:00:00 - - - - - - - -
16.06.2019 02:00:00 - - - - - - - -
16.06.2019 01:00:00 - - - - - - - -
16.06.2019 00:00:00 - - - - - - - -
15.06.2019 23:00:00 - - - - - - - -
15.06.2019 22:00:00 - - - - - - - -
15.06.2019 21:00:00 - - - - - - - -
15.06.2019 20:00:00 26,2 21,0 5 3 SSO 1012,7 2,0 0
15.06.2019 19:00:00 26,0 21,0 13 7 SSO - 3,0 -
15.06.2019 18:00:00 26,0 20,0 9 5 ESE - 3,0 -
15.06.2019 17:00:00 25,2 20,7 15 8 SSO 1013,8 2,0 18
15.06.2019 16:00:00 25,0 20,0 13 7 SSO - 3,0 -
15.06.2019 15:00:00 26,0 22,0 15 8 SSO - 3,0 -
15.06.2019 14:00:00 25,8 21,9 16 9 SO 1014,0 3,0 60
15.06.2019 13:00:00 27,0 23,0 16 9 SO - 4,0 -
15.06.2019 12:00:00 27,0 22,0 13 7 SO - 4,0 -
15.06.2019 11:00:00 26,8 20,4 11 6 SSO 1014,1 4,0 54
15.06.2019 10:00:00 27,0 19,0 8 4 OSO - 5 -
15.06.2019 09:00:00 27,0 20,0 5 3 SO - 5 -
15.06.2019 08:00:00 27,0 19,6 4 2 E 1014,2 4,0 18
15.06.2019 07:00:00 - - - - - - - -
15.06.2019 06:00:00 - - - - - - - -
15.06.2019 05:00:00 - - - - - - - -
15.06.2019 04:00:00 - - - - - - - -
15.06.2019 03:00:00 - - - - - - - -
15.06.2019 02:00:00 - - - - - - - -
15.06.2019 01:00:00 - - - - - - - -
15.06.2019 00:00:00 - - - - - - - -
14.06.2019 23:00:00 - - - - - - - -
14.06.2019 22:00:00 - - - - - - - -
14.06.2019 21:00:00 - - - - - - - -
14.06.2019 20:00:00 27,4 20,0 13 7 O 1015,0 10 0
14.06.2019 19:00:00 28,0 21,0 11 6 O - 10 -
14.06.2019 18:00:00 28,0 21,0 18 10 O - 10 -
14.06.2019 17:00:00 28,2 20,7 21 11 O 1014,6 10 60
14.06.2019 16:00:00 28,0 21,0 16 9 O - 10 -
14.06.2019 15:00:00 29,0 20,0 13 7 O - 10 -
14.06.2019 14:00:00 28,0 18,4 9 5 OSO 1014,7 10 -
14.06.2019 13:00:00 29,0 17,0 11 6 SSO - 10 -
14.06.2019 12:00:00 28,0 18,0 11 6 O - 10 -
14.06.2019 11:00:00 27,4 18,4 13 7 OSO 1015,2 10 60
14.06.2019 10:00:00 31,0 15,0 13 7 ENE - 10 -
14.06.2019 09:00:00 30,0 15,0 15 8 NE - 10 -
14.06.2019 08:00:00 29,0 15,2 21 11 NE 1013,7 15 60
14.06.2019 07:00:00 - - - - - - - -
14.06.2019 06:00:00 - - - - - - - -
14.06.2019 05:00:00 - - - - - - - -
14.06.2019 04:00:00 - - - - - - - -
14.06.2019 03:00:00 - - - - - - - -
14.06.2019 02:00:00 - - - - - - - -
14.06.2019 01:00:00 - - - - - - - -
14.06.2019 00:00:00 - - - - - - - -
13.06.2019 23:00:00 - - - - - - - -
13.06.2019 22:00:00 - - - - - - - -
13.06.2019 21:00:00 - - - - - - - -
13.06.2019 20:00:00 27,8 18,5 0 0 N 1012,5 10 42
13.06.2019 19:00:00 28,0 19,0 0 0 N - 10 -
13.06.2019 18:00:00 27,0 19,0 8 4 O - 10 -
13.06.2019 17:00:00 27,2 20,5 13 7 O 1012,7 10 60
13.06.2019 16:00:00 28,0 19,0 11 6 OSO - 10 -
13.06.2019 15:00:00 28,0 20,0 9 5 OSO - 10 -
13.06.2019 14:00:00 27,2 21,0 8 4 O 1012,9 10 60
13.06.2019 13:00:00 26,0 21,0 8 4 OSO - 10 -
13.06.2019 12:00:00 26,0 21,0 22 12 SO - 10 -
13.06.2019 11:00:00 28,0 18,7 8 4 SO 1012,4 10 60
13.06.2019 10:00:00 30,0 15,0 0 0 N - 10 -
13.06.2019 09:00:00 26,0 18,0 2 1 NE - 10 -
13.06.2019 08:00:00 24,8 19,4 0 0 N 1012,7 10 42
13.06.2019 07:00:00 - - - - - - - -
13.06.2019 06:00:00 - - - - - - - -
13.06.2019 05:00:00 - - - - - - - -
13.06.2019 04:00:00 - - - - - - - -
13.06.2019 03:00:00 - - - - - - - -
13.06.2019 02:00:00 - - - - - - - -
13.06.2019 01:00:00 - - - - - - - -

tt = Temperatura
td = dewpoint
ff = velocità del vento
dd = direzione del vento
ppp = reduced air pressure
vv = visibility
sd = ore di luce

Stazioni seguenti

WeatherPro
AMSI
MeteoEarth